Tracking 29494 objects as of 8-Sep-2024
HD Live streaming from Space Station
objects crossing your sky now

STARLINK-5380

Track STARLINK-5380 now!
10-day predictions
STARLINK-5380 is classified as:


NORAD ID: 54829
Int'l Code: 2022-177K
Perigee: 285.8 km
Apogee: 288.5 km
Inclination: 43.0 °
Period: 90.1 minutes
Semi major axis: 6658 km
RCS: Unknown
Launch date: December 28, 2022
Source: United States (US)
Launch site: AIR FORCE EASTERN TEST RANGE (AFETR)
Your satellite tracking list
Your tracking list is empty




NASA's NSSDC Master Catalog

Two Line Element Set (TLE):
1 54829U 22177K   24251.58334491  .01191249  70540-3  25332-2 0  9991
2 54829  43.0005 216.5415 0001974 263.9728 317.3549 15.97979524  5896
Source of the keplerian elements: AFSPC